{"data":{"norad_id":53152,"intl_designator":"2022-083W","name":"STARLINK-4045","alt_names":[],"object_type":"PAYLOAD","status":"ACTIVE","operator":null,"country":"US","launch_date":"2022-07-17","launch_site_code":"AFETR","launch_vehicle":null,"mission":null,"orbit_class":"UNKNOWN","rcs_meters":null,"size_class":null,"mass_kg":null,"dimensions":null,"purposes":["comms"],"wikipedia_slug":null,"has_3d_model":false,"image_url":null,"decayed_at":null,"tle_current":{"epoch":"2026-05-25T06:00:02.000160Z","epoch_age_seconds":50121,"freshness":"FRESH","line1":"1 53152U 22083W   26145.25002315  .00060954  00000+0  17405-2 0  9999","line2":"2 53152  53.2183 175.1821 0001383  75.2738 119.4284 15.35468368  5836","mean_motion":15.35468368,"eccentricity":0.0001383,"inclination_deg":53.2183,"raan_deg":175.1821,"arg_perigee_deg":75.2738,"mean_anomaly_deg":119.4284,"bstar":0.0017405,"rev_number":583,"period_min":93.782459476886,"perigee_km":458.58401739773,"apogee_km":460.47531599774,"semimajor_km":6837.6666666977,"source":"CELESTRAK","updated_at":"2026-05-25T13:38:17.319548Z"}}}